This is the latest recevied weather packets stored in our database for station/object KB4MOX. If no packets are shown the sender has not sent any weather packets the latest 10 day(s).
| Time | Temp. | Humidity | Pressure | Rain* | Wind** | Luminosity | Snow |
|---|---|---|---|---|---|---|---|
| 1788358617 | 30° C | 70% | 1019.8 hPa | 0 mm | - | 81 W/m² | - |
| 1788358313 | 29.44° C | 71% | 1019.8 hPa | 0 mm | - | 77 W/m² | - |
| 1788358008 | 28.89° C | 72% | 1020 hPa | 0 mm | - | 76 W/m² | - |
| 1788357703 | 28.89° C | 73% | 1020 hPa | 0 mm | - | 77 W/m² | - |
| 1788357402 | 28.89° C | 73% | 1020 hPa | 0 mm | - | 79 W/m² | - |
| 1788357098 | 28.89° C | 73% | 1019.8 hPa | 0 mm | - | 99 W/m² | - |
| 1788356793 | 28.33° C | 74% | 1019.9 hPa | 0 mm | - | 101 W/m² | - |
| 1788356492 | 28.33° C | 74% | 1019.9 hPa | 0 mm | - | 91 W/m² | - |
| 1788356188 | 28.33° C | 74% | 1019.9 hPa | 0 mm | - | 82 W/m² | - |
| 1788355887 | 27.78° C | 76% | 1020 hPa | 0 mm | - | 77 W/m² | - |
| 1788355583 | 27.78° C | 76% | 1020.1 hPa | 0 mm | - | 73 W/m² | - |
| 1788355278 | 27.22° C | 77% | 1020 hPa | 0 mm | - | 69 W/m² | - |
| 1788354974 | 27.22° C | 79% | 1019.9 hPa | 0 mm | - | 65 W/m² | - |
| 1788354669 | 26.67° C | 80% | 1020 hPa | 0 mm | - | 60 W/m² | - |
| 1788354365 | 26.67° C | 80% | 1020.1 hPa | 0 mm | - | 54 W/m² | - |
| 1788354059 | 26.67° C | 80% | 1020.1 hPa | 0 mm | - | 50 W/m² | - |
| 1788353756 | 26.67° C | 81% | 1020 hPa | 0 mm | - | 47 W/m² | - |
| 1788353452 | 26.11° C | 81% | 1020.1 hPa | 0 mm | - | 43 W/m² | - |
| 1788353149 | 26.11° C | 81% | 1020.1 hPa | 0 mm | - | 42 W/m² | - |
| 1788352848 | 26.11° C | 83% | 1019.9 hPa | 0 mm | - | 41 W/m² | - |
| 1788352544 | 25.56° C | 85% | 1020.1 hPa | 0 mm | - | 41 W/m² | - |
| 1788352243 | 25° C | 87% | 1020 hPa | 0 mm | - | 40 W/m² | - |
| 1788351937 | 24.44° C | 89% | 1019.7 hPa | 0 mm | - | 36 W/m² | - |
| 1788351628 | 24.44° C | 90% | 1019.9 hPa | 0 mm | - | 34 W/m² | - |
| 1788351327 | 23.89° C | 91% | 1019.9 hPa | 0 mm | - | 32 W/m² | - |
* Rain latest hour (hover to see other rain measurements)
** Current wind speed in m/s (hover to see current wind gust speed)